TimeCST,TemperatureF,Dew PointF,Humidity,Sea Level PressureIn,VisibilityMPH,Wind Direction,Wind SpeedMPH,Gust SpeedMPH,PrecipitationIn,Events,Conditions,WindDirDegrees,DateUTC
12:55 AM,38.7,37.4,95,30.11,9.0,Calm,Calm,-,N/A,,Scattered Clouds,0,2012-11-06 06:55:00
1:55 AM,39.0,38.3,97,30.12,10.0,WSW,6.9,-,N/A,,Partly Cloudy,250,2012-11-06 07:55:00
2:55 AM,39.0,38.8,99,30.09,10.0,SW,6.9,-,N/A,,Partly Cloudy,230,2012-11-06 08:55:00
3:55 AM,37.9,37.6,99,30.10,10.0,Calm,Calm,-,N/A,,Mostly Cloudy,0,2012-11-06 09:55:00
4:55 AM,39.6,39.4,99,30.10,10.0,West,4.6,-,N/A,,Mostly Cloudy,280,2012-11-06 10:55:00
5:55 AM,39.2,38.8,99,30.04,10.0,SW,13.8,-,N/A,,Scattered Clouds,220,2012-11-06 11:55:00
6:14 AM,39.2,39.2,100,30.03,10.0,SW,17.3,-,N/A,Rain,Light Rain,220,2012-11-06 12:14:00
6:24 AM,39.2,39.2,100,30.04,10.0,WSW,13.8,-,N/A,,Scattered Clouds,240,2012-11-06 12:24:00
6:55 AM,40.5,40.3,99,30.05,10.0,WSW,12.7,-,0.00,,Mostly Cloudy,240,2012-11-06 12:55:00
7:55 AM,42.3,38.5,86,30.08,10.0,West,9.2,-,N/A,,Mostly Cloudy,260,2012-11-06 13:55:00
8:55 AM,46.4,38.1,73,30.11,10.0,West,5.8,-,N/A,,Clear,260,2012-11-06 14:55:00
9:55 AM,53.6,38.3,56,30.12,10.0,NW,10.4,-,N/A,,Clear,320,2012-11-06 15:55:00
10:55 AM,57.7,32.9,39,30.11,10.0,NNW,11.5,23.0,N/A,,Clear,330,2012-11-06 16:55:00
12:55 PM,61.7,26.2,26,30.08,10.0,NNW,15.0,24.2,N/A,,Clear,340,2012-11-06 18:55:00
1:55 PM,62.1,25.2,25,30.06,10.0,NNW,18.4,28.8,N/A,,Clear,330,2012-11-06 19:55:00
2:55 PM,63.0,24.6,23,30.06,10.0,NNW,18.4,23.0,N/A,,Clear,330,2012-11-06 20:55:00
3:55 PM,62.2,23.2,22,30.08,10.0,NNW,12.7,26.5,N/A,,Clear,340,2012-11-06 21:55:00
5:55 PM,54.7,23.7,30,30.10,10.0,NNW,5.8,-,N/A,,Clear,330,2012-11-06 23:55:00
6:55 PM,52.2,23.4,33,30.12,10.0,NW,3.5,-,N/A,,Clear,310,2012-11-07 00:55:00
7:55 PM,48.7,22.3,35,30.14,10.0,WNW,4.6,-,N/A,,Clear,290,2012-11-07 01:55:00
8:55 PM,39.7,25.5,57,30.15,10.0,West,3.5,-,N/A,,Clear,260,2012-11-07 02:55:00
9:55 PM,41.9,26.4,54,30.15,10.0,SSW,3.5,-,N/A,,Clear,200,2012-11-07 03:55:00
10:55 PM,36.9,26.8,67,30.14,10.0,SSW,5.8,-,N/A,,Clear,210,2012-11-07 04:55:00
11:55 PM,35.1,27.9,75,30.14,10.0,Calm,Calm,-,N/A,,Clear,0,2012-11-07 05:55:00